Time,TemperatureF,DewpointF,PressureIn,WindDirection,WindDirectionDegrees,WindSpeedMPH,WindSpeedGustMPH,Humidity,HourlyPrecipIn,Conditions,Clouds,dailyrainin,SoftwareType,DateUTC
2013-07-19 00:00:00,79.0,72.3,29.79,West,268,0.0,7.0,80,0.00,,---,0.00,VWS V14.01,2013-07-19 05:00:00,
2013-07-19 00:30:00,78.5,72.6,29.78,SW,218,1.0,5.0,82,0.00,,---,0.00,VWS V14.01,2013-07-19 05:30:00,
2013-07-19 01:00:00,77.8,72.2,29.77,SW,217,0.0,5.0,83,0.00,,---,0.00,VWS V14.01,2013-07-19 06:00:00,
2013-07-19 01:30:00,77.9,72.3,29.76,SSW,201,0.0,6.0,83,0.00,,---,0.00,VWS V14.01,2013-07-19 06:30:00,
2013-07-19 02:00:00,79.2,72.5,29.75,SW,220,5.0,10.0,80,0.00,,---,0.00,VWS V14.01,2013-07-19 07:00:00,
2013-07-19 02:30:00,79.4,71.9,29.74,NW,321,3.0,11.0,78,0.00,,---,0.00,VWS V14.01,2013-07-19 07:30:00,
2013-07-19 03:00:00,79.5,72.0,29.73,WNW,297,3.0,11.0,78,0.00,,---,0.00,VWS V14.01,2013-07-19 08:00:00,
2013-07-19 03:30:00,78.5,71.8,29.72,WSW,241,5.0,11.0,80,0.00,,---,0.00,VWS V14.01,2013-07-19 08:30:00,
2013-07-19 04:00:00,78.2,71.5,29.72,SW,229,3.0,11.0,80,0.00,,---,0.00,VWS V14.01,2013-07-19 09:00:00,
2013-07-19 04:30:00,78.2,71.2,29.71,South,189,9.0,10.0,79,0.00,,---,0.00,VWS V14.01,2013-07-19 09:30:00,
2013-07-19 05:00:00,77.8,71.1,29.71,SSW,205,4.0,11.0,80,0.00,,---,0.00,VWS V14.01,2013-07-19 10:00:00,
2013-07-19 05:30:00,77.0,70.7,29.71,WSW,251,2.0,10.0,81,0.00,,---,0.00,VWS V14.01,2013-07-19 10:30:00,
2013-07-19 06:00:00,77.3,70.7,29.71,SW,232,2.0,13.0,80,0.00,,---,0.00,VWS V14.01,2013-07-19 11:00:00,
2013-07-19 06:30:00,78.2,70.0,29.71,SW,220,8.0,10.0,76,0.00,,---,0.00,VWS V14.01,2013-07-19 11:30:00,
2013-07-19 07:00:00,79.1,70.1,29.71,West,281,7.0,12.0,74,0.00,,---,0.00,VWS V14.01,2013-07-19 12:00:00,
2013-07-19 07:30:00,79.9,70.1,29.71,West,268,2.0,13.0,72,0.00,,---,0.00,VWS V14.01,2013-07-19 12:30:00,
2013-07-19 08:00:00,81.1,70.8,29.71,WNW,301,1.0,14.0,71,0.00,,---,0.00,VWS V14.01,2013-07-19 13:00:00,
2013-07-19 08:30:00,82.7,71.1,29.72,WSW,252,3.0,16.0,68,0.00,,---,0.00,VWS V14.01,2013-07-19 13:30:00,
2013-07-19 09:00:00,83.3,71.6,29.71,WNW,302,7.0,14.0,68,0.00,,---,0.00,VWS V14.01,2013-07-19 14:00:00,
2013-07-19 09:30:00,84.2,72.1,29.71,NNW,336,3.0,15.0,67,0.00,,---,0.00,VWS V14.01,2013-07-19 14:30:00,
2013-07-19 10:00:00,84.8,71.3,29.70,NW,306,10.0,18.0,64,0.00,,---,0.00,VWS V14.01,2013-07-19 15:00:00,
2013-07-19 10:30:00,85.9,70.9,29.68,WSW,241,2.0,18.0,61,0.00,,---,0.00,VWS V14.01,2013-07-19 15:30:00,
2013-07-19 11:00:00,86.1,71.1,29.68,NNW,331,10.0,15.0,61,0.00,,---,0.00,VWS V14.01,2013-07-19 16:00:00,
2013-07-19 11:30:00,87.2,71.6,29.67,WNW,290,4.0,15.0,60,0.00,,---,0.00,VWS V14.01,2013-07-19 16:30:00,
2013-07-19 12:00:00,87.5,72.4,29.66,WSW,238,2.0,21.0,61,0.00,,---,0.00,VWS V14.01,2013-07-19 17:00:00,
2013-07-19 12:30:00,89.1,71.9,29.65,SW,229,0.0,17.0,57,0.00,,---,0.00,VWS V14.01,2013-07-19 17:30:00,
2013-07-19 13:00:00,87.5,72.9,29.65,NW,317,7.0,20.0,62,0.00,,---,0.00,VWS V14.01,2013-07-19 18:00:00,
2013-07-19 13:30:00,90.0,73.8,29.63,WNW,292,1.0,17.0,59,0.00,,---,0.00,VWS V14.01,2013-07-19 18:30:00,
2013-07-19 14:00:00,88.7,72.5,29.64,NNW,344,2.0,19.0,59,0.00,,---,0.00,VWS V14.01,2013-07-19 19:00:00,
2013-07-19 14:30:00,87.4,71.8,29.63,NW,319,10.0,26.0,60,0.00,,---,0.00,VWS V14.01,2013-07-19 19:30:00,
2013-07-19 15:00:00,88.1,73.4,29.63,NW,321,2.0,20.0,62,0.00,,---,0.00,VWS V14.01,2013-07-19 20:00:00,
2013-07-19 15:30:00,89.0,73.3,29.61,NW,314,7.0,19.0,60,0.00,,---,0.00,VWS V14.01,2013-07-19 20:30:00,
2013-07-19 16:00:00,88.8,72.1,29.61,WSW,241,2.0,22.0,58,0.00,,---,0.00,VWS V14.01,2013-07-19 21:00:00,
2013-07-19 16:30:00,88.7,72.5,29.61,NW,319,2.0,22.0,59,0.00,,---,0.00,VWS V14.01,2013-07-19 21:30:00,
2013-07-19 17:00:00,88.7,73.0,29.60,NW,313,13.0,19.0,60,0.00,,---,0.00,VWS V14.01,2013-07-19 22:00:00,
2013-07-19 17:30:00,87.9,71.3,29.61,WNW,286,9.0,19.0,58,0.00,,---,0.00,VWS V14.01,2013-07-19 22:30:00,
2013-07-19 18:00:00,86.9,72.3,29.61,WNW,282,2.0,22.0,62,0.00,,---,0.00,VWS V14.01,2013-07-19 23:00:00,
2013-07-19 18:30:00,86.6,71.6,29.61,NW,315,4.0,15.0,61,0.00,,---,0.00,VWS V14.01,2013-07-19 23:30:00,
2013-07-19 19:00:00,85.0,71.5,29.61,NW,318,0.0,16.0,64,0.00,,---,0.00,VWS V14.01,2013-07-20 00:00:00,
2013-07-19 19:30:00,84.3,72.2,29.60,NNW,333,0.0,6.0,67,0.00,,---,0.00,VWS V14.01,2013-07-20 00:30:00,
2013-07-19 20:00:00,83.7,72.0,29.61,NNW,332,0.0,6.0,68,0.00,,---,0.00,VWS V14.01,2013-07-20 01:00:00,
2013-07-19 20:30:00,83.1,71.4,29.62,WNW,300,0.0,5.0,68,0.00,,---,0.00,VWS V14.01,2013-07-20 01:30:00,
2013-07-19 21:00:00,81.4,70.7,29.64,NW,309,0.0,9.0,70,0.00,,---,0.00,VWS V14.01,2013-07-20 02:00:00,
2013-07-19 21:30:00,78.8,71.0,29.66,North,351,0.0,7.0,77,0.00,,---,0.00,VWS V14.01,2013-07-20 02:30:00,
2013-07-19 22:00:00,78.3,71.3,29.67,NW,321,0.0,4.0,79,0.00,,---,0.00,VWS V14.01,2013-07-20 03:00:00,
2013-07-19 22:30:00,78.5,69.5,29.67,NW,306,2.0,5.0,74,0.00,,---,0.00,VWS V14.01,2013-07-20 03:30:00,
2013-07-19 23:00:00,76.6,70.0,29.68,NNW,345,0.0,5.0,80,0.00,,---,0.00,VWS V14.01,2013-07-20 04:00:00,
2013-07-19 23:30:00,75.1,68.9,29.68,NNW,328,0.0,1.0,81,0.00,,---,0.00,VWS V14.01,2013-07-20 04:30:00,